STARLINK-1826, 46723

Orbit data source: Space-Track

STARLINK-1826, 46723 is a payload satellite owned by SpaceX/Seattle (US) in LEO that was launched on Sun, 18 Oct 2020 UTC via an FALCON 9 launch vehicle from the Air Force Eastern Test Range (AFETR). Payload-class satellites include a variety of spacecraft equipped with specific instruments for various scientific and technological missions. These include communications satellites like Starlink; space stations such as the ISS; scientific satellites like the Hubble; Earth observation satellites from companies like Planet Labs, Umbra, and HawkEye 360; GPS; miniature CubeSats for education and research; and military/defense satellites.

Loading next visibility...
Identifier
46723, 2020-073BF
Orbit
LEO
Country
Flag of USUS
Related business
Manufacturer
SpaceX/Seattle
Mission
Partially operational Commercial Communications
Bus & Motor
STARLINK, Unknown motor
Mass
260 kg wet, ~248 kg dry
Launch date (UTC)
2020-10-18 (6 years ago)
Launch vehicle
FALCON 9
Launch site
Air Force Eastern Test Range (AFETR)
Object type
Payload
Rocket body
Debris
Shape & HBR
Box + 1 Pan, 10.1 m
Radar Cross Section
13.562 m², Large (>1 m²)

Expand to show TLE details & history
Last TLE update: 5 hours ago

TLE from 5 hours ago
0 STARLINK-1826
1 46723U 20073BF  26169.00003472  .00123862  00000-0  57813-3 0  9993
2 46723  53.0413  44.0956 0006123 169.3039 258.9458 15.82429799  5957
Epoch: 2026-06-18T00:00Z
TLE epoch observation values (Epoch: 2026-06-18T00:00:02.999Z)
Latitude
48.03677°
Longitude
-165.86014°
Altitude
329.7 km
Speed
7.716 km/s
True Right ascension
06h 41m 36s
True Declination
47° 51' 17"
Sunlit
Object was in daylight at epoch
Visualization orbit readout
Latitude
Unknown
Longitude
Unknown
Altitude
Unknown
Speed
Unknown
Apparent Right ascension
Unknown
Apparent Declination
Unknown
Sunlit
N/A
Visualization observer readout
Local Sidereal Time
16:04:23
Azimuth
Unknown
Elevation
Unknown
Doppler factor
Unknown
Orbital elements
Apogee altitude
327.957 km
Perigee altitude
319.75 km
Semi-major axis
6,701.99 km
Eccentricity
0.00061
Inclination
53.0413°
RAAN
44.0956°
Arg. of periapsis
169.3039°
True anomaly
258.87695°
Mean anomaly
258.9458°
Eccentric anomaly
258.91137°
Mean motion
3.95583 °/min
Orbital period
91 mins
BSTAR
0.00057813
Loading maneuver chart data...
Computing Atmospheric mass density...

Documentation

Showing up to 5 results
|